Regional Weather Roundup
Issued by NWS

Home | Current Version | Previous Version | Text Only | Print | Product List | Glossary On
Versions: 1 2 3 4 5 6 7 8 9 10 11 12 13 14 15 16 17 18 19 20 21 22 23 24 25 26 27 28 29 30 31 32 33 34 35 36 37 38 39 40 41 42 43 44 45 46 47 48 49 50
000
ASUS43 KBIS 040910
RWRND

NORTH DAKOTA REGIONAL WEATHER ROUNDUP
NATIONAL WEATHER SERVICE BISMARCK ND
400 AM CDT SAT JUL 04 2015

NOTE: "FAIR" INDICATES FEW OR NO CLOUDS BELOW 12,000 FEET WITH NO
SIGNIFICANT WEATHER AND/OR OBSTRUCTIONS TO VISIBILITY.


NDZ001>003-009>011-017-041000-
NORTHWEST NORTH DAKOTA

CITY           SKY/WX    TMP DP  RH WIND       PRES   REMARKS
WILLISTON      PTCLDY    70  61  73 S5        29.80F HAZE
MINOT          CLEAR     64  60  87 CALM      29.81F FOG
MINOT AFB      CLEAR     64  64 100 S7        29.80F
$$

NDZ018>021-031>035-040>046-041000-
SOUTHWEST NORTH DAKOTA

CITY           SKY/WX    TMP DP  RH WIND       PRES   REMARKS
BISMARCK       PTCLDY    65  63  93 NE5       29.86F FOG
DICKINSON      CLEAR     63  60  90 S8        29.85S FOG
GARRISON         N/A     66  63  90 CALM      29.84F
HETTINGER ARPT PTCLDY    64  59  83 SE7       29.89F HAZE
$$

NDZ004>008-012>016-024-026-027-054-041000-
NORTHEAST NORTH DAKOTA

CITY           SKY/WX    TMP DP  RH WIND       PRES   REMARKS
GRAND FORKS    MOCLDY    60  58  92 SE5       29.88S FOG
GRND FRKS AFB  CLEAR     61  58  91 S6        29.88F
DEVILS LAKE    CLEAR     64  59  82 S3        29.87S
$$

NDZ022-023-025-028>030-036>039-047>053-041000-
SOUTHEAST NORTH DAKOTA

CITY           SKY/WX    TMP DP  RH WIND       PRES   REMARKS
FARGO          CLEAR     65  60  84 SE6       29.90F HAZE
JAMESTOWN      CLOUDY    65  62  90 SE5       29.89F FOG
$$



USA.gov is the U.S. government's official web portal to all federal, state and local government web resources and services.